CW2989 Weather Reports


time (UTC)temp
F
wind
direction
speed
knots
gust
knots
rain 1hr
in
rain 24hr
in
rain mn
in
humidity
%
barometer
mb
20210518211354 68 161 0.9 6.1 0.00 0.01 0.01 88 994.5
20210518210357 68 198 0.9 4.3 0.00 0.00 0.00 87 994.5
20210518205329 68 142 0.9 6.1 0.00 0.00 0.00 85 994.6
20210518204333 69 124 0.9 7.0 0.00 0.00 0.00 84 994.9
20210518203338 69 125 1.7 7.0 0.00 0.00 0.00 83 994.9
20210518202307 69 143 1.7 4.3 0.00 0.00 0.00 83 995.3
20210518201246 69 82 1.7 7.0 0.00 0.00 0.00 82 995.5
20210518200308 69 48 1.7 7.0 0.00 0.00 0.00 82 995.5
20210518195238 69 157 2.6 6.1 0.00 0.00 0.00 81 994.9
20210518194240 69 164 1.7 7.8 0.00 0.00 0.00 81 995.5
20210518193236 69 95 3.5 7.8 0.00 0.00 0.00 80 995.5
20210518192233 70 105 2.6 9.6 0.00 0.13 0.00 80 996.0
20210518191201 70 92 3.5 10.4 0.00 0.13 0.00 80 995.5
20210518190224 70 126 2.6 12.2 0.00 0.13 0.00 81 995.5
20210518185218 69 88 3.5 12.2 0.00 0.13 0.00 83 995.9
20210518184236 69 105 3.5 9.6 0.00 0.13 0.00 83 996.0
20210518183240 70 91 3.5 9.6 0.00 0.13 0.00 82 996.0
20210518182207 69 142 3.5 11.3 0.00 0.30 0.00 85 996.1
20210518181151 68 90 3.5 8.7 0.00 0.42 0.00 85 996.0
20210518180154 68 96 4.3 11.3 0.00 0.57 0.00 86 996.0
20210518175127 67 67 4.3 11.3 0.00 0.62 0.00 90 996.0
20210518174111 66 134 3.5 8.7 0.00 0.62 0.00 92 996.4
20210518173105 66 54 3.5 8.7 0.00 0.62 0.00 93 996.4
20210518172126 65 83 3.5 9.6 0.00 0.62 0.00 95 996.5
20210518171118 65 88 3.5 9.6 0.00 0.62 0.00 95 996.0
20210518170103 65 105 3.5 9.6 0.00 0.62 0.00 95 996.0
20210518165106 65 53 2.6 8.7 0.00 0.62 0.00 95 996.4
20210518164053 65 89 2.6 8.7 0.00 0.62 0.00 95 996.0
20210518163054 65 91 2.6 11.3 0.00 0.62 0.00 95 996.0
20210518162116 66 102 3.5 11.3 0.00 0.62 0.00 93 995.7
20210518161141 67 59 2.6 7.0 0.00 0.62 0.00 94 996.2
20210518160117 68 83 0.9 5.2 0.00 0.63 0.00 92 996.2
20210518155103 68 78 0.0 2.6 0.00 0.63 0.00 92 996.2
20210518154046 68 77 0.0 0.0 0.00 0.63 0.00 92 996.0
20210518153055 68 77 0.0 2.6 0.00 0.63 0.00 91 996.0
20210518152118 68 77 0.9 2.6 0.00 0.63 0.00 91 996.0
20210518151111 69 74 0.0 1.7 0.00 0.63 0.00 90 996.0
20210518150136 69 274 0.0 0.0 0.00 0.63 0.00 90 996.0
20210518145152 69 274 0.0 0.0 0.00 0.63 0.00 90 995.5
20210518144128 68 274 0.0 4.3 0.00 0.63 0.00 90 994.8
20210518143120 68 250 0.9 10.4 0.00 0.63 0.00 90 994.8
20210518142134 68 226 1.7 10.4 0.00 0.63 0.00 91 993.8
20210518141125 67 222 3.5 8.7 0.00 0.63 0.00 91 993.5
20210518140103 67 219 2.6 8.7 0.00 0.63 0.00 92 993.5
20210518135047 66 234 2.6 9.6 0.00 0.63 0.00 92 993.0
20210518134056 66 224 1.7 7.0 0.00 0.63 0.00 92 993.6
20210518133100 66 237 1.7 7.0 0.00 0.63 0.00 92 993.6
20210518132115 66 256 1.7 8.7 0.00 0.63 0.00 91 993.7
20210518131051 66 263 1.7 9.6 0.00 0.63 0.00 91 993.3
20210518130059 66 213 1.7 9.6 0.00 0.63 0.00 91 993.3
20210518125027 65 236 0.9 5.2 0.00 0.63 0.00 90 993.2
20210518124050 65 213 0.9 5.2 0.00 0.63 0.00 90 993.2
20210518123105 65 254 0.9 4.3 0.00 0.63 0.00 90 993.2
20210518122129 65 244 0.9 4.3 0.00 0.63 0.00 90 993.3
20210518121114 65 222 0.9 5.2 0.00 0.63 0.00 91 992.9
20210518120114 65 226 0.9 5.2 0.00 0.63 0.00 91 992.9
20210518115042 65 103 1.7 5.2 0.00 0.63 0.00 91 992.8
20210518114020 65 236 0.9 5.2 0.00 0.63 0.00 92 993.0
20210518113043 65 165 1.7 7.8 0.00 0.63 0.00 92 993.0
20210518112014 65 165 2.6 8.7 0.00 0.63 0.00 92 993.2
20210518111010 65 132 2.6 8.7 0.00 0.63 0.00 91 993.2
20210518105947 65 145 2.6 7.8 0.00 0.63 0.00 91 993.2
20210518104914 65 167 2.6 9.6 0.00 0.63 0.00 90 993.5
20210518103851 65 95 1.7 9.6 0.00 0.63 0.00 90 993.7
20210518102913 65 150 1.7 5.2 0.00 0.63 0.00 89 993.7
20210518101901 64 142 0.9 7.8 0.00 0.63 0.00 90 993.4
20210518100848 64 135 1.7 7.8 0.00 0.63 0.00 89 993.6
20210518095845 64 138 1.7 8.7 0.00 0.63 0.00 88 993.8
20210518094907 64 153 2.6 8.7 0.00 0.63 0.00 87 993.8
20210518093905 64 159 3.5 8.7 0.00 0.63 0.00 87 993.9
20210518092917 64 142 2.6 10.4 0.00 0.63 0.00 87 993.9
20210518091850 65 161 3.5 10.4 0.00 0.63 0.00 86 994.1
20210518090902 65 145 3.5 9.6 0.00 0.63 0.00 84 994.3
20210518085847 65 146 4.3 9.6 0.00 0.63 0.00 84 994.4
20210518084908 66 130 4.3 11.3 0.00 0.63 0.00 82 994.4
20210518083926 66 98 5.2 11.3 0.00 0.63 0.00 82 994.5
20210518082900 66 124 4.3 8.7 0.00 0.63 0.00 81 994.8
20210518081906 67 151 3.5 9.6 0.00 0.63 0.00 81 994.8
20210518080854 67 155 3.5 9.6 0.00 0.63 0.00 82 994.3
20210518075901 67 165 2.6 8.7 0.00 0.63 0.00 82 994.3
20210518074909 68 83 2.6 9.6 0.00 0.63 0.00 85 994.3
20210518073837 69 159 3.5 9.6 0.00 0.63 0.00 85 994.2
20210518072848 70 136 2.6 7.0 0.00 0.63 0.00 92 994.8
20210518071852 70 132 2.6 7.8 0.00 0.63 0.00 91 994.8
20210518070846 70 115 2.6 7.8 0.00 0.63 0.00 91 994.8
20210518065812 71 125 2.6 5.2 0.00 0.63 0.00 91 994.9
20210518064828 71 78 2.6 7.8 0.00 0.63 0.00 91 994.9
20210518063759 71 72 1.7 7.8 0.00 0.63 0.00 91 993.8
20210518062754 71 253 2.6 7.8 0.00 0.63 0.00 91 993.3
20210518061806 70 253 3.5 8.7 0.00 0.63 0.00 92 993.3
20210518060750 70 237 4.3 10.4 0.00 0.63 0.00 92 992.9
20210518055722 70 265 4.3 12.2 0.00 0.63 0.00 92 993.2
20210518054735 70 214 4.3 12.2 0.00 0.63 0.00 93 993.2
20210518053715 70 225 4.3 11.3 0.00 0.63 0.00 93 993.3
20210518052712 70 266 3.5 12.2 0.00 0.63 0.00 94 993.7
20210518051639 69 271 1.7 12.2 0.00 0.63 0.00 94 993.7
20210518050634 69 250 3.5 9.6 0.00 0.63 0.00 94 993.6
20210518045605 69 257 2.6 10.4 0.00 0.63 0.63 94 993.7
20210518044550 69 214 3.5 10.4 0.00 0.63 0.63 94 993.7
20210518043521 68 197 2.6 8.7 0.00 0.63 0.63 94 993.7
20210518042539 67 223 2.6 7.8 0.00 0.63 0.63 93 994.1
20210518041556 67 233 0.9 6.1 0.00 0.63 0.63 93 994.1
20210518040601 67 244 1.7 4.3 0.00 0.63 0.63 93 994.3
20210518035622 67 236 0.0 2.6 0.00 0.63 0.63 92 994.4
20210518034611 67 254 0.0 1.7 0.00 0.63 0.63 92 994.4
20210518033630 67 254 0.9 2.6 0.00 0.63 0.63 91 994.3
20210518032646 68 240 0.9 3.5 0.00 0.63 0.63 90 994.3
20210518031651 68 237 0.9 3.5 0.00 0.63 0.63 90 994.3
20210518030631 68 241 0.9 3.5 0.00 0.63 0.63 89 994.4
20210518025626 68 238 1.7 7.0 0.00 0.63 0.63 89 994.4
20210518024614 68 259 2.6 7.0 0.00 0.63 0.63 88 994.4
20210518023601 69 242 2.6 7.0 0.00 0.63 0.63 87 993.7
20210518022533 69 244 1.7 7.8 0.00 0.63 0.63 87 993.0
20210518021517 70 284 2.6 7.8 0.00 0.63 0.63 87 993.0
20210518020443 70 233 3.5 9.6 0.00 0.63 0.63 86 992.7
20210518015419 70 249 2.6 10.4 0.00 0.63 0.63 84 993.1
20210518014406 71 221 2.6 10.4 0.00 0.63 0.63 82 992.9
20210518013357 71 265 2.6 8.7 0.00 0.63 0.63 80 992.9
20210518012326 72 244 1.7 8.7 0.00 0.63 0.63 78 993.2
20210518011333 72 244 0.9 4.3 0.00 0.63 0.63 76 993.1
20210518010334 73 230 1.7 6.1 0.00 0.63 0.63 75 993.1
20210518005305 74 157 2.6 7.8 0.00 0.63 0.63 73 993.2
20210518004257 74 245 2.6 7.8 0.00 0.63 0.63 72 993.0
20210518003255 75 240 2.6 7.8 0.00 0.63 0.63 70 993.0
20210518002222 75 240 3.5 10.4 0.00 0.63 0.63 69 992.9
20210518001213 75 234 4.3 10.4 0.00 0.63 0.63 67 992.4
20210518000236 76 219 4.3 10.4 0.00 0.63 0.63 66 992.4
20210517235205 76 231 3.5 14.8 0.00 0.63 0.63 64 992.2
20210517234141 77 252 5.2 14.8 0.00 0.63 0.63 63 992.5
20210517233132 78 187 4.3 13.0 0.00 0.63 0.63 61 992.5
20210517232142 79 240 4.3 11.3 0.00 0.63 0.63 61 992.3
20210517231112 79 267 4.3 10.4 0.00 0.63 0.63 58 992.2
20210517230114 79 227 3.5 9.6 0.00 0.63 0.63 59 992.2
20210517225046 79 238 4.3 10.4 0.00 0.63 0.63 60 992.2
20210517224044 79 250 4.3 9.6 0.00 0.63 0.63 64 992.1
20210517223105 79 236 3.5 9.6 0.00 0.63 0.63 67 992.1
20210517222125 80 223 2.6 7.8 0.00 0.63 0.63 66 992.1
20210517221125 80 237 1.7 5.2 0.00 0.63 0.63 64 991.6
20210517220122 80 260 0.0 3.5 0.00 0.63 0.63 65 991.6
20210517215118 81 219 0.0 0.9 0.00 0.63 0.63 64 991.1
20210517214125 80 241 0.0 0.0 0.00 0.63 0.63 66 991.2
20210517213112 79 241 0.0 2.6 0.00 0.63 0.63 69 991.2
20210517212136 79 277 0.0 5.2 0.00 0.63 0.63 66 992.0